EW5937 Weather Reports


time (UTC)temp
F
wind
direction
speed
knots
gust
knots
rain 1hr
in
rain 24hr
in
rain mn
in
humidity
%
barometer
mb
20240416040933 48 93 0.9 9.6 0.00 0.00 0.00 42 996.3
20240416035933 48 63 0.9 4.3 0.00 0.00 0.00 41 996.3
20240416034933 48 69 6.1 6.1 0.00 0.00 0.00 41 996.5
20240416033933 48 84 1.7 3.5 0.00 0.00 0.00 41 996.6
20240416032933 48 103 1.7 3.5 0.00 0.00 0.00 42 997.0
20240416031933 48 115 0.0 1.7 0.00 0.00 0.00 42 996.6
20240416030933 48 82 0.9 3.5 0.00 0.00 0.00 42 996.4
20240416025933 48 78 1.7 3.5 0.00 0.00 0.00 43 995.9
20240416024933 48 85 2.6 4.3 0.00 0.00 0.00 44 996.1
20240416023933 48 57 3.5 4.3 0.00 0.00 0.00 44 996.1
20240416022933 49 69 1.7 4.3 0.00 0.00 0.00 43 996.4
20240416021933 48 58 0.9 5.2 0.00 0.00 0.00 45 996.5
20240416020933 48 46 1.7 9.6 0.00 0.00 0.00 46 996.2
20240416015933 48 62 2.6 11.3 0.00 0.00 0.00 47 996.0
20240416014933 49 82 1.7 8.7 0.00 0.00 0.00 48 995.9
20240416013932 49 73 3.5 7.0 0.00 0.00 0.00 48 995.8
20240416012933 50 70 4.3 10.4 0.00 0.00 0.00 48 995.5
20240416011932 51 62 4.3 8.7 0.00 0.00 0.00 44 995.2
20240416010932 52 48 1.7 7.0 0.00 0.00 0.00 42 995.0
20240416005932 53 315 3.5 7.8 0.00 0.00 0.00 41 994.6
20240416004933 53 61 3.5 9.6 0.00 0.00 0.00 41 994.4
20240416003932 53 106 1.7 6.1 0.00 0.00 0.00 40 994.4
20240416002932 53 82 7.8 11.3 0.00 0.00 0.00 40 994.4
20240416001932 54 145 3.5 9.6 0.00 0.00 0.00 39 993.9
20240416000932 54 42 3.5 8.7 0.00 0.00 0.00 38 993.7
20240415235932 55 311 1.7 7.8 0.00 0.00 0.00 36 993.6
20240415234932 56 119 3.5 7.8 0.00 0.00 0.00 35 993.5
20240415233932 56 100 2.6 8.7 0.00 0.00 0.00 33 993.0
20240415232932 57 120 4.3 12.2 0.00 0.00 0.00 32 992.8
20240415231932 60 103 6.1 9.6 0.00 0.00 0.00 29 992.6
20240415230932 64 335 3.5 9.6 0.00 0.00 0.00 21 992.2
20240415225932 66 350 2.6 7.8 0.00 0.00 0.00 18 991.2
20240415224932 67 89 2.6 7.8 0.00 0.00 0.00 17 990.7
20240415223932 70 142 2.6 8.7 0.00 0.00 0.00 10 990.4
20240415222933 72 167 2.6 11.3 0.00 0.00 0.00 9 990.1
20240415221932 73 115 2.6 9.6 0.00 0.00 0.00 10 989.9
20240415220932 73 119 0.0 7.8 0.00 0.00 0.00 9 989.7
20240415215932 73 117 2.6 8.7 0.00 0.00 0.00 8 989.6
20240415214932 73 136 3.5 7.0 0.00 0.00 0.00 8 989.5
20240415213932 73 136 1.7 12.2 0.00 0.00 0.00 9 989.4
20240415212932 73 108 6.1 12.2 0.00 0.00 0.00 8 989.5
20240415211932 73 75 2.6 13.0 0.00 0.00 0.00 8 989.6
20240415210932 74 143 4.3 12.2 0.00 0.00 0.00 8 989.5
20240415205932 74 108 2.6 11.3 0.00 0.00 0.00 8 989.6
20240415204932 74 57 4.3 10.4 0.00 0.00 0.00 8 989.7
20240415203932 74 101 7.0 13.0 0.00 0.00 0.00 8 989.7
20240415202932 75 195 5.2 9.6 0.00 0.00 0.00 7 989.6
20240415201932 75 143 3.5 13.0 0.00 0.00 0.00 7 989.7
20240415200932 74 161 5.2 10.4 0.00 0.00 0.00 8 989.9
20240415195932 74 287 0.9 10.4 0.00 0.00 0.00 8 990.1
20240415194932 74 95 1.7 7.0 0.00 0.00 0.00 9 990.2
20240415193932 74 188 4.3 15.6 0.00 0.00 0.00 8 990.5
20240415192932 76 136 3.5 7.0 0.00 0.00 0.00 8 990.5
20240415191932 76 162 5.2 11.3 0.00 0.00 0.00 10 990.6
20240415190932 75 140 2.6 7.8 0.00 0.00 0.00 10 990.9
20240415185932 76 106 0.0 9.6 0.00 0.00 0.00 10 991.0
20240415184932 75 144 2.6 7.8 0.00 0.00 0.00 9 991.4
20240415183932 76 96 3.5 9.6 0.00 0.00 0.00 10 991.6
20240415182931 76 112 0.0 2.6 0.00 0.00 0.00 13 991.8
20240415181931 75 181 0.0 8.7 0.00 0.00 0.00 11 992.0
20240415180931 75 233 0.0 5.2 0.00 0.00 0.00 15 992.3
20240415175931 74 124 3.5 6.1 0.00 0.00 0.00 14 992.6
20240415174931 72 282 0.0 4.3 0.00 0.00 0.00 21 992.7
20240415173931 71 354 0.0 5.2 0.00 0.00 0.00 24 993.0
20240415172932 70 4 2.6 3.5 0.00 0.00 0.00 25 993.7
20240415171931 69 307 0.0 2.6 0.00 0.00 0.00 21 994.0
20240415170931 68 20 0.9 2.6 0.00 0.00 0.00 25 994.3
20240415165931 68 57 1.7 3.5 0.00 0.00 0.00 26 994.7
20240415164931 68 312 0.9 3.5 0.00 0.00 0.00 26 994.7
20240415163931 68 339 0.0 3.5 0.00 0.00 0.00 25 994.9
20240415162931 67 20 0.0 1.7 0.00 0.00 0.00 23 995.3
20240415161931 65 131 0.0 0.9 0.00 0.00 0.00 22 995.5
20240415160931 64 68 0.0 3.5 0.00 0.00 0.00 24 995.6
20240415155931 64 159 0.0 1.7 0.00 0.00 0.00 26 995.7
20240415154931 63 345 0.0 1.7 0.00 0.00 0.00 25 996.1
20240415153931 63 317 0.9 1.7 0.00 0.00 0.00 26 996.3
20240415152931 61 12 0.0 1.7 0.00 0.00 0.00 29 996.6
20240415151931 60 335 0.0 0.9 0.00 0.00 0.00 30 996.7
20240415150931 60 27 0.0 1.7 0.00 0.00 0.00 28 996.9
20240415145931 60 56 0.0 1.7 0.00 0.00 0.00 31 997.1
20240415144931 60 52 0.0 0.9 0.00 0.00 0.00 32 997.2
20240415143931 60 69 0.0 1.7 0.00 0.00 0.00 31 997.3
20240415142931 60 116 0.0 0.9 0.00 0.00 0.00 30 997.4
20240415141931 57 142 0.0 0.9 0.00 0.00 0.00 30 997.5
20240415140931 54 127 0.0 0.0 0.00 0.00 0.00 32 997.7
20240415135931 54 127 0.0 0.0 0.00 0.00 0.00 35 997.7
20240415134931 52 248 0.0 0.9 0.00 0.00 0.00 34 997.8
20240415133931 50 236 0.0 0.0 0.00 0.00 0.00 38 997.9
20240415132931 48 236 0.0 0.0 0.00 0.00 0.00 37 997.8
20240415132130 47 236 0.0 0.0 0.00 0.00 0.00 37 997.8
20240415131130 45 236 0.0 0.0 0.00 0.00 0.00 39 997.9
20240415130130 44 236 0.0 0.0 0.00 0.00 0.00 40 997.8
20240415125130 45 236 0.0 0.0 0.00 0.00 0.00 38 997.8
20240415124130 45 236 0.0 0.9 0.00 0.00 0.00 38 997.8
20240415123130 44 236 0.0 0.0 0.00 0.00 0.00 37 997.8
20240415122130 45 236 0.0 0.9 0.00 0.00 0.00 35 997.9
20240415121130 45 226 0.0 0.9 0.00 0.00 0.00 37 997.7
20240415120130 45 183 0.0 0.0 0.00 0.00 0.00 37 997.8
20240415115130 46 173 0.0 0.0 0.00 0.00 0.00 36 997.9
20240415114130 46 131 0.0 0.0 0.00 0.00 0.00 36 998.0
20240415113130 47 131 0.0 0.9 0.00 0.00 0.00 34 998.2
20240415112130 48 262 0.0 0.0 0.00 0.00 0.00 30 998.0
20240415111129 49 262 0.0 2.6 0.00 0.00 0.00 29 998.0
20240415110130 50 129 0.0 0.0 0.00 0.00 0.00 26 997.8
20240415105129 49 134 0.0 0.9 0.00 0.00 0.00 28 997.9
20240415104129 49 224 0.0 0.0 0.00 0.00 0.00 29 997.8
20240415103129 50 224 0.0 0.0 0.00 0.00 0.00 28 998.0
20240415102129 50 223 0.0 0.9 0.00 0.00 0.00 27 998.0
20240415101129 51 121 0.0 0.0 0.00 0.00 0.00 30 998.0
20240415100130 52 121 0.0 0.0 0.00 0.00 0.00 23 997.8
20240415095130 51 121 0.0 0.0 0.00 0.00 0.00 24 997.9
20240415094129 51 107 0.0 0.9 0.00 0.00 0.00 24 997.8
20240415093130 50 122 0.0 0.9 0.00 0.00 0.00 26 998.1
20240415092129 50 209 0.0 0.9 0.00 0.00 0.00 27 998.3
20240415091129 52 136 0.0 0.9 0.00 0.00 0.00 26 998.4
20240415090129 53 119 0.0 0.9 0.00 0.00 0.00 25 998.2
20240415085129 53 122 0.0 0.9 0.00 0.00 0.00 25 998.3
20240415084129 54 200 0.0 1.7 0.00 0.00 0.00 25 998.3
20240415083130 54 112 0.0 1.7 0.00 0.00 0.00 25 998.4
20240415082129 54 148 0.0 3.5 0.00 0.00 0.00 26 998.5
20240415081129 53 108 0.0 2.6 0.00 0.00 0.00 28 998.8
20240415080129 52 101 0.0 0.9 0.00 0.00 0.00 30 998.9
20240415075129 52 198 0.0 0.9 0.00 0.00 0.00 29 999.0
20240415074129 52 217 0.0 0.0 0.00 0.00 0.00 31 999.3
20240415073129 52 217 0.0 0.9 0.00 0.00 0.00 31 999.3
20240415072129 52 255 0.0 0.0 0.00 0.00 0.00 32 999.4
20240415071129 52 256 0.0 0.0 0.00 0.00 0.00 32 999.7
20240415070129 53 161 0.0 0.0 0.00 0.00 0.00 32 1000.0
20240415065129 53 161 0.0 0.0 0.00 0.00 0.00 30 999.9
20240415064129 53 160 0.0 0.0 0.00 0.00 0.00 30 1000.0
20240415063129 54 160 0.0 0.0 0.00 0.00 0.00 29 1000.1
20240415062129 55 165 0.0 0.0 0.00 0.00 0.00 28 1000.2
20240415061129 54 154 0.0 2.6 0.00 0.00 0.00 28 1000.3
20240415060129 54 179 0.0 0.0 0.00 0.00 0.00 29 1000.4
20240415055129 55 179 0.0 0.0 0.00 0.00 0.00 28 1000.5
20240415054129 55 160 0.0 0.0 0.00 0.00 0.00 28 1000.6
20240415053129 56 160 0.0 0.0 0.00 0.00 0.00 27 1000.7
20240415052129 57 161 0.0 0.0 0.00 0.00 0.00 26 1000.9
20240415051129 58 201 0.0 0.0 0.00 0.00 0.00 25 1001.1
20240415050129 60 204 0.0 0.0 0.00 0.00 0.00 25 1001.0
20240415045129 60 149 0.0 0.9 0.00 0.00 0.00 23 1001.2
20240415044129 61 137 0.0 1.7 0.00 0.00 0.00 23 1001.2
20240415043129 62 124 0.9 0.9 0.00 0.00 0.00 22 1001.3
20240415042129 63 119 0.0 2.6 0.00 0.00 0.00 22 1001.5